| time (UTC) | temp F | wind direction | speed MPH | gust MPH | rain 1hr in | rain 24hr in | rain mn in | humidity % | barometer mb |
| 20260507061541 | 79 | 98 | 1.0 | 4.0 | 0.00 | 0.00 | 0.00 | 89 | 1012.3 |
| 20260507060041 | 79 | 98 | 2.0 | 4.0 | 0.00 | 0.00 | 0.00 | 89 | 1012.4 |
| 20260507054542 | 79 | 98 | 1.0 | 3.0 | 0.00 | 0.00 | 0.00 | 89 | 1012.5 |
| 20260507053045 | 79 | 98 | 1.0 | 6.0 | 0.00 | 0.00 | 0.00 | 89 | 1012.5 |
| 20260507051547 | 79 | 98 | 1.0 | 4.0 | 0.00 | 0.00 | 0.00 | 89 | 1012.4 |
| 20260507050053 | 79 | 98 | 2.0 | 6.0 | 0.00 | 0.00 | 0.00 | 89 | 1012.2 |
| 20260507044556 | 79 | 98 | 2.0 | 6.0 | 0.00 | 0.00 | 0.00 | 89 | 1012.3 |
| 20260507043103 | 78 | 99 | 2.0 | 4.0 | 0.00 | 0.00 | 0.00 | 88 | 1012.1 |
| 20260507043002 | 78 | 98 | 1.0 | 3.0 | 0.00 | 0.00 | 0.00 | 88 | 1012.2 |
| 20260507041516 | 78 | 99 | 1.0 | 3.0 | 0.00 | 0.00 | 0.00 | 88 | 1012.0 |
| 20260507040008 | 79 | 99 | 2.0 | 6.0 | 0.00 | 0.00 | 0.00 | 88 | 1011.8 |
| 20260507034513 | 79 | 99 | 3.0 | 6.0 | 0.00 | 0.00 | 0.00 | 88 | 1011.7 |
| 20260507033014 | 79 | 99 | 2.0 | 7.0 | 0.00 | 0.00 | 0.00 | 88 | 1011.5 |
| 20260507031514 | 79 | 99 | 3.0 | 7.0 | 0.00 | 0.00 | 0.00 | 88 | 1011.4 |
| 20260507030016 | 79 | 100 | 3.0 | 9.0 | 0.00 | 0.00 | 0.00 | 88 | 1011.2 |
| 20260507024522 | 79 | 100 | 3.0 | 8.0 | 0.00 | 0.00 | 0.00 | 88 | 1010.9 |
| 20260507023021 | 79 | 101 | 4.0 | 9.0 | 0.00 | 0.00 | 0.00 | 88 | 1010.7 |
| 20260507021525 | 79 | 95 | 4.0 | 8.0 | 0.00 | 0.00 | 0.00 | 87 | 1010.5 |
| 20260507020034 | 79 | 94 | 2.0 | 8.0 | 0.00 | 0.00 | 0.00 | 87 | 1010.5 |
| 20260507014556 | 79 | 93 | 2.0 | 7.0 | 0.00 | 0.00 | 0.00 | 87 | 1010.3 |
| 20260507013108 | 79 | 96 | 2.0 | 6.0 | 0.00 | 0.00 | 0.00 | 87 | 1010.1 |
| 20260507011556 | 79 | 96 | 4.0 | 8.0 | 0.00 | 0.00 | 0.00 | 86 | 1009.8 |
| 20260507010054 | 79 | 95 | 4.0 | 7.0 | 0.00 | 0.00 | 0.00 | 86 | 1009.4 |
| 20260507010003 | 79 | 95 | 4.0 | 7.0 | 0.00 | 0.00 | 0.00 | 86 | 1009.4 |
| 20260507004550 | 80 | 94 | 3.0 | 8.0 | 0.00 | 0.00 | 0.00 | 86 | 1009.3 |
| 20260507003056 | 80 | 94 | 6.0 | 9.0 | 0.00 | 0.00 | 0.00 | 85 | 1009.2 |
| 20260507001620 | 80 | 93 | 4.0 | 8.0 | 0.00 | 0.00 | 0.00 | 84 | 1009.0 |
| 20260507001502 | 80 | 93 | 3.0 | 7.0 | 0.00 | 0.00 | 0.00 | 85 | 1009.0 |
| 20260507000101 | 80 | 98 | 3.0 | 8.0 | 0.00 | 0.00 | 0.00 | 84 | 1009.0 |
| 20260507000005 | 81 | 99 | 4.0 | 10.0 | 0.00 | 0.00 | 0.00 | 85 | 1008.9 |
| 20260506234504 | 80 | 105 | 6.0 | 11.0 | 0.00 | 0.00 | 0.00 | 84 | 1008.7 |
| 20260506233008 | 81 | 92 | 7.0 | 11.0 | 0.00 | 0.00 | 0.00 | 84 | 1008.7 |
| 20260506231514 | 81 | 102 | 4.0 | 9.0 | 0.00 | 0.00 | 0.00 | 84 | 1008.6 |
| 20260506230017 | 81 | 96 | 4.0 | 9.0 | 0.00 | 0.00 | 0.00 | 84 | 1008.5 |
| 20260506224510 | 81 | 102 | 6.0 | 9.0 | 0.00 | 0.00 | 0.00 | 84 | 1008.6 |
| 20260506223105 | 81 | 98 | 6.0 | 11.0 | 0.00 | 0.00 | 0.00 | 84 | 1008.5 |
| 20260506221507 | 81 | 101 | 5.0 | 9.0 | 0.00 | 0.00 | 0.00 | 83 | 1008.5 |
| 20260506220008 | 81 | 102 | 4.0 | 10.0 | 0.00 | 0.00 | 0.00 | 83 | 1008.5 |
| 20260506214509 | 82 | 104 | 6.0 | 10.0 | 0.00 | 0.00 | 0.00 | 82 | 1008.5 |
| 20260506213014 | 82 | 101 | 5.0 | 10.0 | 0.00 | 0.00 | 0.00 | 83 | 1008.5 |
| 20260506211517 | 81 | 96 | 7.0 | 12.0 | 0.00 | 0.00 | 0.00 | 84 | 1008.5 |
| 20260506210021 | 81 | 109 | 5.0 | 10.0 | 0.00 | 0.00 | 0.00 | 84 | 1008.7 |
| 20260506204527 | 82 | 101 | 4.0 | 9.0 | 0.00 | 0.00 | 0.00 | 83 | 1008.9 |
| 20260506203042 | 82 | 98 | 3.0 | 7.0 | 0.00 | 0.00 | 0.00 | 83 | 1009.0 |
| 20260506201539 | 82 | 96 | 4.0 | 9.0 | 0.00 | 0.00 | 0.00 | 82 | 1009.2 |
| 20260506200120 | 82 | 101 | 4.0 | 8.0 | 0.00 | 0.00 | 0.00 | 83 | 1009.2 |
| 20260506194543 | 81 | 111 | 3.0 | 9.0 | 0.00 | 0.00 | 0.00 | 84 | 1009.5 |
| 20260506193055 | 81 | 97 | 5.0 | 9.0 | 0.00 | 0.00 | 0.00 | 84 | 1009.8 |
| 20260506191505 | 81 | 105 | 3.0 | 8.0 | 0.00 | 0.00 | 0.00 | 84 | 1010.0 |
| 20260506190007 | 81 | 105 | 6.0 | 10.0 | 0.00 | 0.00 | 0.00 | 83 | 1010.1 |
| 20260506184518 | 81 | 115 | 6.0 | 11.0 | 0.00 | 0.00 | 0.00 | 83 | 1010.1 |
| 20260506183023 | 81 | 119 | 5.0 | 10.0 | 0.00 | 0.00 | 0.00 | 83 | 1010.3 |
| 20260506181531 | 81 | 116 | 7.0 | 11.0 | 0.00 | 0.00 | 0.00 | 83 | 1010.3 |
| 20260506180034 | 81 | 130 | 6.0 | 10.0 | 0.00 | 0.00 | 0.00 | 82 | 1010.4 |
| 20260506174531 | 82 | 114 | 5.0 | 10.0 | 0.00 | 0.00 | 0.00 | 81 | 1010.4 |
| 20260506173032 | 82 | 126 | 5.0 | 11.0 | 0.00 | 0.00 | 0.00 | 81 | 1010.3 |
| 20260506171548 | 83 | 138 | 4.0 | 13.0 | 0.00 | 0.00 | 0.00 | 81 | 1010.1 |
| 20260506170037 | 82 | 144 | 4.0 | 10.0 | 0.00 | 0.00 | 0.00 | 82 | 1010.2 |
| 20260506164539 | 81 | 146 | 4.0 | 12.0 | 0.00 | 0.00 | 0.00 | 84 | 1010.1 |
| 20260506163048 | 80 | 140 | 6.0 | 14.0 | 0.00 | 0.00 | 0.00 | 84 | 1010.2 |
| 20260506161556 | 80 | 140 | 5.0 | 12.0 | 0.00 | 0.00 | 0.00 | 84 | 1010.1 |
| 20260506160104 | 80 | 147 | 7.0 | 13.0 | 0.00 | 0.00 | 0.00 | 85 | 1010.0 |
| 20260506154557 | 80 | 142 | 6.0 | 13.0 | 0.00 | 0.00 | 0.00 | 85 | 1009.7 |
| 20260506153058 | 79 | 161 | 7.0 | 13.0 | 0.00 | 0.00 | 0.00 | 87 | 1009.6 |
| 20260506151508 | 79 | 146 | 9.0 | 15.0 | 0.00 | 0.00 | 0.00 | 88 | 1009.6 |
| 20260506150008 | 78 | 153 | 6.0 | 12.0 | 0.00 | 0.00 | 0.00 | 88 | 1009.5 |
| 20260506144512 | 78 | 145 | 7.0 | 12.0 | 0.00 | 0.00 | 0.00 | 87 | 1009.5 |
| 20260506143020 | 79 | 146 | 7.0 | 13.0 | 0.00 | 0.00 | 0.00 | 87 | 1009.5 |
| 20260506141522 | 79 | 140 | 9.0 | 12.0 | 0.00 | 0.00 | 0.00 | 86 | 1009.6 |
| 20260506140011 | 79 | 146 | 7.0 | 16.0 | 0.00 | 0.00 | 0.00 | 86 | 1009.6 |
| 20260506134526 | 79 | 144 | 8.0 | 14.0 | 0.00 | 0.00 | 0.00 | 86 | 1009.4 |
| 20260506133018 | 79 | 144 | 7.0 | 11.0 | 0.00 | 0.00 | 0.00 | 87 | 1009.6 |
| 20260506131526 | 79 | 148 | 6.0 | 11.0 | 0.00 | 0.00 | 0.00 | 87 | 1009.6 |
| 20260506130024 | 79 | 144 | 6.0 | 12.0 | 0.00 | 0.00 | 0.00 | 87 | 1009.4 |
| 20260506124528 | 78 | 146 | 5.0 | 12.0 | 0.00 | 0.00 | 0.00 | 87 | 1009.1 |
| 20260506123028 | 78 | 143 | 4.0 | 9.0 | 0.00 | 0.00 | 0.00 | 87 | 1009.0 |
| 20260506121530 | 78 | 140 | 3.0 | 7.0 | 0.00 | 0.00 | 0.00 | 87 | 1008.9 |
| 20260506120032 | 78 | 142 | 4.0 | 9.0 | 0.00 | 0.00 | 0.00 | 87 | 1008.8 |
| 20260506114543 | 78 | 143 | 4.0 | 9.0 | 0.00 | 0.00 | 0.00 | 87 | 1008.6 |
| 20260506113039 | 78 | 142 | 3.0 | 10.0 | 0.00 | 0.00 | 0.00 | 87 | 1008.6 |
| 20260506111547 | 78 | 146 | 4.0 | 8.0 | 0.00 | 0.00 | 0.00 | 87 | 1008.6 |
| 20260506110051 | 78 | 146 | 3.0 | 5.0 | 0.00 | 0.00 | 0.00 | 87 | 1008.6 |
| 20260506104553 | 78 | 146 | 3.0 | 8.0 | 0.00 | 0.00 | 0.00 | 87 | 1008.4 |
| 20260506103105 | 78 | 148 | 2.0 | 8.0 | 0.00 | 0.00 | 0.00 | 87 | 1008.3 |
| 20260506101506 | 78 | 147 | 4.0 | 9.0 | 0.00 | 0.00 | 0.00 | 87 | 1008.3 |
| 20260506100016 | 78 | 146 | 4.0 | 10.0 | 0.00 | 0.00 | 0.00 | 87 | 1008.3 |
| 20260506094519 | 78 | 142 | 5.0 | 9.0 | 0.00 | 0.00 | 0.00 | 87 | 1008.0 |
| 20260506093021 | 78 | 148 | 6.0 | 11.0 | 0.00 | 0.00 | 0.00 | 87 | 1008.0 |
| 20260506091524 | 78 | 148 | 6.0 | 12.0 | 0.00 | 0.00 | 0.00 | 87 | 1007.9 |
| 20260506090029 | 78 | 143 | 8.0 | 13.0 | 0.00 | 0.00 | 0.00 | 86 | 1007.7 |
| 20260506084536 | 78 | 144 | 8.0 | 18.0 | 0.00 | 0.00 | 0.00 | 86 | 1007.7 |
| 20260506083037 | 78 | 132 | 8.0 | 16.0 | 0.00 | 0.00 | 0.00 | 86 | 1007.6 |
| 20260506081547 | 78 | 147 | 9.0 | 18.0 | 0.00 | 0.00 | 0.00 | 86 | 1007.5 |
| 20260506073042 | 79 | 136 | 7.0 | 15.0 | 0.00 | 0.00 | 0.00 | 84 | 1008.4 |
| 20260506071553 | 79 | 155 | 6.0 | 14.0 | 0.00 | 0.00 | 0.00 | 84 | 1008.8 |
| 20260506070123 | 79 | 154 | 9.0 | 15.0 | 0.00 | 0.00 | 0.00 | 84 | 1008.8 |